Home > Weather > Thessaloniki > Past weeks

Flag for Greece Past Weather in Thessaloniki, Greece — Yesterday and Last 2 Weeks

Now
93 °F

Sunny.


Feels Like: 91 °F
Forecast: 69 / 98 °F
Wind: 7 mph from Southwest

Location: Thessaloniki Airport

Current Time: Jul 23, 2016 at 4:14:28 PM

Latest Report: Jul 23, 2016 at 3:20 PM


Visibility: 10 mi

Pressure: 29.95 "Hg

Humidity: 28%

Dew Point: 55 °F

Location of ThessalonikiLocation

Past Weather in Thessaloniki — Graph

°F

Thessaloniki Temperature Yesterday

Maximum temperature yesterday: 93 °F (at 4:20 PM)
Minimum temperature yesterday: 66 °F (at 3:50 AM)
Average temperature yesterday: 78 °F

High & Low Weather Summary for the Past Weeks

 TemperatureHumidityPressure
High95 °F (Jul 14, 3:20 PM)83% (Jul 10, 3:50 AM)30.07 "Hg (Jul 10, 3:50 AM)
Low63 °F (Jul 9, 5:50 AM)18% (Jul 8, 3:20 PM)29.62 "Hg (Jul 16, 2:20 AM)
Average80 °F49%29.89 "Hg
* Reported Jul 8 2:20 PM — Jul 23 2:50 PM, Thessaloniki, Weather by CustomWeather, © 2016

Note: Actual official high and low records may vary slightly from our data, if they occured in-between our weather recording intervals... More about our weather records

Advertising

Thessaloniki Weather History for the Previous 24 Hours

Scroll right to see more
 ConditionsComfort  
Time TempWeatherWind HumidityBarometerVisibility
2:50 PM
Sat, Jul 23
91 °FSunny.7 mph36%29.95 "Hg10 mi
2:20 PM90 °FSunny.9 mph33%29.95 "Hg10 mi
1:50 PM90 °FSunny.10 mph33%29.95 "Hg10 mi
1:20 PM88 °FSunny.9 mph43%29.98 "Hg10 mi
12:50 PM86 °FSunny.8 mph49%29.98 "Hg10 mi
12:20 PM84 °FSunny.7 mph51%29.98 "Hg10 mi
11:50 AM82 °FSunny.7 mph55%29.98 "Hg10 mi
11:20 AM81 °FSunny.7 mph58%29.98 "Hg10 mi
10:50 AM79 °FSunny.6 mph61%29.98 "Hg10 mi
10:20 AM79 °FSunny.6 mph58%29.98 "Hg10 mi
9:50 AM77 °FSunny.7 mph69%29.98 "Hg10 mi
9:20 AM77 °FSunny.7 mph61%29.98 "Hg10 mi
8:50 AM75 °FSunny.3 mph65%29.98 "Hg10 mi
8:20 AM77 °FSunny.3 mph61%29.98 "Hg10 mi
7:50 AM73 °FSunny.2 mph57%29.98 "Hg10 mi
7:20 AM70 °FSunny.6 mph64%29.98 "Hg10 mi
6:50 AM68 °FClear.6 mph69%29.98 "Hg10 mi
6:20 AM68 °FClear.6 mph69%29.98 "Hg10 mi
5:50 AM68 °FClear.5 mph69%29.98 "Hg10 mi
5:20 AM68 °FClear.5 mph73%29.98 "Hg10 mi
4:50 AM68 °FClear.5 mph73%29.98 "Hg10 mi
4:20 AM70 °FClear.2 mph69%29.98 "Hg10 mi
3:50 AM70 °FClear.2 mph69%29.98 "Hg10 mi
3:20 AM72 °FClear.2 mph65%29.98 "Hg10 mi
2:50 AM72 °FClear.2 mph65%29.98 "Hg10 mi
2:20 AM73 °FClear.3 mph61%29.98 "Hg10 mi
1:50 AM72 °FClear.5 mph65%29.98 "Hg10 mi
1:20 AM73 °FClear.2 mph61%29.98 "Hg10 mi
12:50 AM75 °FClear.5 mph57%29.98 "Hg10 mi
12:20 AM77 °FClear.5 mph54%29.95 "Hg10 mi
11:50 PM
Fri, Jul 22
75 °FClear.7 mph54%29.95 "Hg10 mi
11:20 PM75 °FClear.7 mph57%29.95 "Hg10 mi
10:50 PM75 °FClear.6 mph57%29.95 "Hg10 mi
10:20 PM77 °FClear.8 mph51%29.95 "Hg10 mi
9:50 PM79 °FSunny.5 mph48%29.95 "Hg10 mi
9:20 PM81 °FSunny.7 mph45%29.95 "Hg10 mi
8:50 PM84 °FSunny.9 mph35%29.95 "Hg10 mi
8:20 PM84 °FSunny.13 mph33%29.95 "Hg10 mi
7:50 PM86 °FSunny.13 mph29%29.95 "Hg10 mi
7:20 PM86 °FSunny.16 mph33%29.92 "Hg10 mi
6:50 PM90 °FPassing clouds.14 mph29%29.92 "HgN/A
6:20 PM90 °FPassing clouds.14 mph27%29.92 "HgN/A
5:50 PM90 °FPassing clouds.14 mph31%29.92 "HgN/A
5:20 PM93 °FPassing clouds.8 mph24%29.92 "HgN/A
4:50 PM93 °FPassing clouds.10 mph24%29.92 "HgN/A
4:20 PM93 °FPassing clouds.10 mph26%29.92 "HgN/A
Weather by CustomWeather, © 2016

See weather overviewHow to use our weather pages